weather.gov     
National Weather Service

Regional Weather Roundup
NWS Homepage
This page is being discontinued on March 12, 2014.
The same data is available at this site. Please update your bookmarks.
Thank you, and we apologize for the inconvenience.
Please send an email to SR-SRH.Webmaster@noaa.gov with any concerns.


Current Version
Previous Version:    01  02  03  04  05  06  07  08  09  10  11  12  13  14  15  16  17  18  19  20  21  22  23  24  25  26  27  28  29  30  
   31  32  33  34  35  36  37  38  39  40  41  42  43  44  45  46  47  48  49  50  51  52  53  54  55  56  57  58  59  60  
[Printable]
032
ASUS44 KFWD 281015
RWRTX
NORTH TEXAS HOURLY WEATHER ROUNDUP
NATIONAL WEATHER SERVICE FORT WORTH TX
500 AM CDT MON JUL 28 2014

NOTE: "FAIR" INDICATES FEW OR NO CLOUDS BELOW 12,000 FEET WITH NO
SIGNIFICANT WEATHER AND/OR OBSTRUCTIONS TO VISIBILITY.

TXZ118-119-281100-
DALLAS/FORT WORTH METROPLEX

CITY           SKY/WX    TMP DP  RH WIND       PRES   REMARKS
DFW AIRPORT    MOCLDY    82  69  64 CALM      30.05R
DALLAS LOVE    PTCLDY    84  70  62 S5        30.05R
FTW MEACHAM    CLEAR     83  69  62 CALM      30.04R
DAL-EXECUTIVE  CLEAR     85  70  60 VRB6      30.04R
FTW-ALLIANCE   PTCLDY    80  68  66 CALM      30.05R
FTW-NAS-JRB    CLEAR     84  67  56 S8        30.08R
FTW-SPINKS     CLEAR     81  69  67 S6        30.06S
ARLINGTON      CLEAR     83  69  62 S6        30.04R
GRAND PRAIRIE  CLEAR     82  68  63 S6        30.05S
ADDISON        CLEAR     84  68  59 CALM      30.07R
MESQUITE       CLEAR     75  71  87 CALM      30.05R
LANCASTER      CLEAR     80  69  68 SW3       30.05R
$$

TXZ091>094-102>105-117-120-121-131>134-281100-
NORTH CENTRAL TEXAS

CITY           SKY/WX    TMP DP  RH WIND       PRES   REMARKS
SHRMAN/DENISON MOCLDY    80  69  70 N7        30.09S
GAINESVILLE    CLOUDY    80  73  76 N5        30.11R
BOWIE          CLOUDY    81  74  77 NE5       30.09R
BRIDGEPORT     MOCLDY    76  67  73 CALM      30.07S
DECATUR        PTCLDY    80  65  61 NE5       30.08R
DENTON         PTCLDY    79  69  71 N7        30.06R
MCKINNEY       CLEAR     78  72  81 N3        30.05R
GREENVILLE     CLEAR     77  72  83 CALM      30.06R
ROCKWALL       PTCLDY    78  72  80 S3        30.04S
TERRELL        CLEAR     78  74  87 S3        30.05R
WAXAHACHIE     PTCLDY    81  68  65 SW6       30.06R
CLEBURNE       CLEAR     79  73  83 S6        30.08R
GRANBURY       PTCLDY    81  68  64 CALM      30.07R
$$

TXZ083>090-098>101-113>116-127>130-139>142-154-155-281100-
WESTERN NORTH TEXAS

CITY           SKY/WX    TMP DP  RH WIND       PRES   REMARKS
WICHITA FALLS  MOCLDY    79  71  76 E15       30.08R THUNDER
WF-KICKAPOO    MOCLDY    80  69  70 NE14G22   30.09S
VERNON         MOCLDY    80  64  57 E14G20    30.10S
ABILENE        CLEAR     80  63  55 S8        30.09S
ABILENE-DYESS  CLEAR     76  63  64 SE6       30.08R
BRECKENRIDGE   CLEAR     81  63  53 S6        30.06S
GRAHAM         PTCLDY    81  64  57 CALM      30.05R
MINERAL WELLS  MOCLDY    76  67  73 SE5       30.05R
STEPHENVILLE   CLEAR     76  66  72 CALM      30.11S
COMANCHE       CLEAR     76  65  69 CALM      30.09S
BROWNWOOD      PTCLDY    73  64  73 CALM      30.10R
COLEMAN        CLEAR     74  63  69 CALM      30.10S
BRADY          CLEAR     77  70  78 S5        30.11R
$$

TXZ143>147-156>162-174-175-281100-
CENTRAL TEXAS

CITY           SKY/WX    TMP DP  RH WIND       PRES   REMARKS
WACO           CLEAR     77  70  79 S6        30.06R
WACO-MCGREGOR  CLEAR     75  66  73 S5        30.08R
HILLSBORO      CLEAR     78  69  73 CALM      30.07R
CORSICANA      CLEAR     80  71  74 SW7       30.07R
MEXIA          CLEAR     78  72  82 SW5       30.06R
HEARNE         CLEAR    N/A N/A N/A CALM      30.07R
CAMERON        CLEAR     77  71  83 SW5       30.06S
TEMPLE         CLEAR     75  64  69 S7        30.07S
KILLEEN        CLEAR     75  68  78 S8        30.07R
KILLEEN-SKYLRK CLEAR     75  64  69 S5        30.07S
FORT HOOD      CLEAR     79  68  69 S5        30.07R
GATESVILLE     CLEAR     77  68  73 CALM      30.09S
HAMILTON       CLEAR     76  67  75 S6        30.10R
LAMPASAS       CLEAR     76  71  84 CALM      30.09R
$$

TXZ095>097-106>112-122>126-135>138-148>153-164>167-281100-
EAST TEXAS

CITY           SKY/WX    TMP DP  RH WIND       PRES   REMARKS
PARIS          MOCLDY    79  70  73 CALM      30.07S
SULPHUR SPRNGS PTCLDY    80  74  82 CALM      30.08R
CLARKSVILLE    CLOUDY    77  74  90 NW3       30.06S
MOUNT PLEASANT MOCLDY    77  75  95 CALM      30.07R
GILMER         CLEAR     79  73  83 SW5       30.06R
MINEOLA        CLEAR     81  73  78 SW6       30.06R
TYLER          PTCLDY    80  73  79 SW8       30.06R
LONGVIEW       CLEAR     78  73  84 SW5       30.05R
MARSHALL       CLEAR     78  75  90 S3        30.06S
ATHENS         CLEAR     75  72  88 CALM      30.06R
JACKSONVILLE   PTCLDY    77  74  88 SW5       30.09R
HENDERSON      CLEAR     76  74  92 CALM      30.07S
NACOGDOCHES    CLEAR     77  73  88 CALM      30.07R
LUFKIN         CLEAR     80  75  84 N3        30.06R
$$

SUPPLEMENTAL OBSERVATIONS (CENTRAL)

CITY           SKY/WX    TMP DP  RH WIND       PRES   REMARKS
LAKE TEXOMA      N/A     79  70  73 VRB7        N/A
CADDO GRASSLND   N/A     79  75  89 N1          N/A
PAT MAYSE LAKE   N/A     79  75  89 E1          N/A
ATHENS           N/A     79  73  83 SW2         N/A
PALESTINE        N/A     75  72  88 CALM        N/A
LAKE LIMESTONE   N/A     75  73  94 SW3         N/A
MCGREGOR         N/A     75  68  78 SW2         N/A
TEMPLE           N/A     75  68  78 S3          N/A
$$

SUPPLEMENTAL OBSERVATIONS (WEST)

CITY           SKY/WX    TMP DP  RH WIND       PRES   REMARKS
POSSUM KINGDOM   N/A     81  63  54 S6          N/A
GRANBURY         N/A     81  68  65 SE3         N/A
COMANCHE         N/A     75  63  64 SE2         N/A
HAMBY            N/A    N/A N/A N/A S6          N/A
IVIE RESERVOIR   N/A     77  66  69 E3          N/A
COLORADO BEND    N/A     75  64  69 S3          N/A
$$

SUPPLEMENTAL OBSERVATIONS (EAST)

CITY           SKY/WX    TMP DP  RH WIND       PRES   REMARKS
CLARKSVILLE      N/A     75  70  83 CALM        N/A
TEXARKANA        N/A     75  72  88 NW1         N/A
LINDEN           N/A     77  73  88 CALM        N/A
CADDO LAKE       N/A     73  72  94 CALM        N/A
GILMER           N/A     79  73  83 SW5         N/A
HENDERSON        N/A     75  72  88 SW3         N/A
LUFKIN           N/A     77  75  94 MISG        N/A
N SABINE NF      N/A     75  73  94 MISG        N/A
S SABINE NF      N/A     77  73  88 SW2         N/A
$$

SUPPLEMENTAL OBSERVATIONS ARE A COLLECTION OF AUTOMATED INSTRUMENTS
THAT ARE MAINTAINED BY A VARIETY OF FEDERAL AND STATE AGENCIES.
CERTAIN ELEMENTS...SUCH AS HUMIDITY VALUES AND SUSTAINED WIND
SPEEDS...MAY BE APPROXIMATED.





U.S. Dept. of Commerce
NOAA National Weather Service
1325 East West Highway
Silver Spring, MD 20910
E-mail: w-nws.webmaster@noaa.gov
Page last modified: May 16, 2007
NATIONAL WEATHER SERVICE: for Safety, for Work, for Fun - FOR LIFE